星链-31674 (STARLINK-31674 )

导读

STARLINK-31674是美国星链计划中的一颗低轨卫星,于2024年4月17日发射入轨,归美国太空探索技术公司(SpaceX)所有。该卫星属于星链互联网卫星星座,旨在为全球用户提供低延迟、高速率的卫星互联网服务,目前已在轨运行接近两年,承担着星座组网、通信覆盖的相关任务。

Basic Information
目录编号:
59517
目录名称:
STARLINK-31674
国际标识:
2024-073G
轨道中心:
EARTH
卫星名称:
星链-31674
卫星全名:
星链-31674 (STARLINK-31674 )
卫星状态:
在轨 (已飞行788 天)
发射日期:
2024-04-17 UTC
国别 :
美国 (US)
星等 :
--
Orbit Information
数据来源 国际轨道数据 AOE轨道数据
星历时间 2026-06-12T13:14:59+0800
2天前
查看轨道信息
2026-06-13T01:00:00+0800
1天前
查看轨道信息
半长轴 6861.146km 6861.185km
偏心率 0.0002489 0.0002249
轨道倾角 43.019° 43.005°
近地点辐角 289.901° 294.644°
升交点赤经 144.092° 141.328°
平近点角 70.157° 240.977°
近地点 481.301km 481.504km
远地点 484.717km 484.592km
周期 94.266分钟 94.267分钟
每日圈数 15.275935 15.275806
Detailed Information
固有亮度:
5
最大亮度:
1.5
卫星平台:
Starlink v2.0 mini
覆盖范围:
全球
运营商:
太空探索技术公司
运营商所在国:
美国
制造商(研发单位):
太空探索技术公司
制造商所在国:
美国
使用方式:
暂无
Satellite Introduction
星链(Starlink)计划是由太空探索技术公司(SpaceX)提出的一个巨型低轨卫星互联网星座项目,计划在2019年至2024年间在太空搭建由约1.2万颗卫星组成的“星链”网络,其中1584颗将部署在地球上空550千米处的近地轨道,并从2020年开始工作。该卫星仍在工作。
2D Orbit Map
3D Orbit Map
Orbit Altitude Analysis Chart
Orbit Inclination Analysis Chart
Orbit Comprehensive Analysis Chart
View Comprehensive Chart